EW8204 Weather Reports


Display with metric or nautical units.
time (UTC)temp
F
wind
direction
speed
MPH
gust
MPH
rain 1hr
in
rain 24hr
in
rain mn
in
humidity
%
barometer
mb
20260506080105 45 318 0.0 0.0 0.00 0.10 0.00 81 1018.2
20260506073052 45 318 0.0 0.0 0.00 0.12 0.00 81 1018.2
20260506071543 45 318 0.0 0.0 0.00 0.12 0.00 81 1018.4
20260506061534 44 318 0.0 0.0 0.00 0.18 0.12 81 1017.3
20260506044536 46 318 0.0 0.0 0.00 0.21 0.12 80 1016.5
20260506043025 46 319 0.0 0.0 0.00 0.21 0.12 80 1016.4
20260506041532 46 318 0.0 0.0 0.00 0.21 0.12 80 1016.2
20260506040026 47 318 0.0 1.0 0.00 0.21 0.12 80 1016.1
20260506034525 47 318 0.0 0.0 0.00 0.21 0.12 80 1015.9
20260506033019 47 318 0.0 0.0 0.00 0.21 0.12 80 1015.6
20260506031518 48 318 0.0 0.0 0.00 0.21 0.12 80 1015.4
20260506030017 48 318 0.0 0.0 0.00 0.21 0.12 81 1015.5
20260506024519 48 318 0.0 0.0 0.00 0.21 0.12 81 1015.2
20260506023019 48 318 0.0 0.0 0.00 0.21 0.12 81 1015.3
20260506021516 48 318 0.0 0.0 0.00 0.21 0.12 82 1015.1
20260506020013 48 318 0.0 0.0 0.00 0.21 0.12 82 1015.1
20260506014515 49 318 0.0 0.0 0.00 0.21 0.12 82 1015.0
20260506013015 48 318 0.0 0.0 0.00 0.21 0.12 82 1015.0
20260506011531 48 318 0.0 0.0 0.00 0.21 0.12 83 1015.0
20260506010010 49 319 0.0 0.0 0.01 0.21 0.12 81 1015.0
20260506004525 48 319 0.0 0.0 0.01 0.21 0.12 82 1015.0
20260506003011 48 318 0.0 1.0 0.01 0.21 0.12 81 1014.8
20260506001508 48 333 0.0 1.0 0.01 0.21 0.12 83 1014.8
20260506000007 48 333 0.0 0.0 0.00 0.20 0.11 83 1014.7
20260505234508 48 333 0.0 1.0 0.00 0.20 0.11 82 1014.5
20260505233003 48 333 0.0 1.0 0.00 0.20 0.11 83 1014.4
20260505231502 48 333 0.0 1.0 0.00 0.20 0.11 83 1014.4
20260505224557 48 333 0.0 1.0 0.00 0.22 0.11 82 1014.3
20260505223057 48 333 0.0 1.0 0.00 0.22 0.11 83 1014.4
20260505221602 48 333 0.0 2.0 0.00 0.22 0.11 83 1014.4
20260505220100 48 58 0.0 0.0 0.00 0.22 0.11 83 1014.4
20260505214552 48 58 0.0 1.0 0.00 0.23 0.11 84 1014.5
20260505213048 48 307 0.0 0.0 0.00 0.23 0.11 84 1014.7
20260505211544 48 307 0.0 3.0 0.00 0.23 0.11 84 1014.7
20260505210048 48 354 0.0 1.0 0.00 0.23 0.11 83 1014.5
20260505204550 47 354 0.0 3.0 0.00 0.23 0.11 83 1014.5
20260505203038 47 333 0.0 2.0 0.00 0.23 0.11 83 1014.5
20260505201538 47 326 0.0 3.0 0.00 0.23 0.11 83 1014.5
20260505200035 46 321 0.0 2.0 0.00 0.23 0.11 82 1014.5
20260505194531 46 319 1.0 4.0 0.00 0.23 0.11 83 1014.6
20260505193035 47 331 1.0 3.0 0.00 0.23 0.11 83 1014.5
20260505191630 47 304 0.0 0.0 0.00 0.23 0.11 83 1014.4
20260505190027 47 6 1.0 4.0 0.00 0.23 0.11 84 1014.2
20260505184526 48 304 0.0 3.0 0.00 0.23 0.11 84 1014.1
20260505183034 48 316 0.0 4.0 0.00 0.23 0.11 84 1014.1
20260505181520 48 330 2.0 5.0 0.00 0.23 0.11 84 1014.0
20260505180021 49 328 0.0 4.0 0.00 0.23 0.11 84 1013.8
20260505174514 49 82 0.0 2.0 0.00 0.23 0.11 84 1013.4
20260505173014 49 288 0.0 2.0 0.00 0.23 0.11 84 1013.5
20260505171511 49 305 1.0 4.0 0.00 0.23 0.11 83 1013.6
20260505170010 50 326 0.0 3.0 0.00 0.23 0.11 82 1013.5
20260505164507 48 97 0.0 2.0 0.00 0.25 0.11 83 1013.5
20260505163007 47 116 0.0 1.0 0.00 0.25 0.11 83 1013.4
20260505161605 46 106 0.0 0.0 0.00 0.25 0.11 80 1013.6
20260505153108 44 94 0.0 1.0 0.00 0.30 0.11 80 1013.2
20260505151551 44 332 1.0 2.0 0.00 0.30 0.11 81 1013.1
20260505124549 43 323 0.0 0.0 0.03 0.48 0.07 81 1012.8
20260505123048 43 323 0.0 0.0 0.02 0.47 0.06 81 1012.8
20260505121543 43 323 0.0 0.0 0.01 0.46 0.05 81 1012.6
20260505120058 43 323 0.0 0.0 0.01 0.46 0.05 81 1012.7
20260505114541 43 323 0.0 0.0 0.00 0.45 0.04 81 1012.7
20260505113045 43 323 0.0 0.0 0.00 0.45 0.04 81 1012.7
20260505111539 43 323 0.0 0.0 0.00 0.45 0.04 81 1012.5
20260505101536 43 323 0.0 0.0 0.00 0.45 0.04 80 1012.8
20260505100035 43 323 0.0 0.0 0.00 0.45 0.04 80 1013.1
20260505094535 43 323 0.0 0.0 0.00 0.45 0.04 80 1012.9
20260505093033 43 323 0.0 0.0 0.01 0.45 0.04 80 1013.1
20260505091533 43 323 0.0 0.0 0.01 0.45 0.04 80 1013.2
20260505090031 43 323 0.0 0.0 0.02 0.45 0.04 80 1013.1
20260505084543 43 323 0.0 1.0 0.02 0.45 0.04 81 1013.3
20260505083029 44 338 0.0 1.0 0.02 0.44 0.03 81 1013.6
20260505081529 44 338 0.0 1.0 0.02 0.44 0.03 80 1013.5